Location: Joplin, MO
(37.0842°N, 94.5133°W)
Time: 16:23:13
(UTC+01:00)

Tiangong - Visible Passes

Search period start: 30 January 2023 00:00
Search period end: 09 February 2023 00:00
Orbit: 383 x 386 km, 41.5° (Epoch: 30 January)

Date Brightness Start Highest point End Pass type
(mag) Time Alt. Az. Time Alt. Az. Time Alt. Az.
30 Jan -1.9 01:35:53 10° WNW 01:39:02 69° SSW 01:41:35 14° ESE visible
31 Jan 0.2 02:13:38 10° W 02:16:04 21° SW 02:17:51 14° S visible
01 Feb -0.7 01:13:40 10° W 01:16:37 37° SSW 01:19:34 10° SE visible
02 Feb 1.1 01:52:28 10° WSW 01:53:28 11° SW 01:54:28 10° SSW visible
